Location: Newark
(54.0610°N, 4.7980°W)
Time: 12:15:44
(UTC+00:00)

ISS - Visible Passes

Search period start: 21 October 2019 00:00
Search period end: 31 October 2019 00:00
Orbit: 411 x 421 km, 51.6° (Epoch: 21 October)

Date Brightness Start Highest point End Pass type
(mag) Time Alt. Az. Time Alt. Az. Time Alt. Az.
24 Oct -0.7 06:24:57 10° S 06:26:41 14° SE 06:28:26 10° ESE visible
26 Oct -1.5 06:23:04 10° SSW 06:25:49 24° SSE 06:28:36 10° E visible
27 Oct -1.2 05:35:03 10° S 05:37:23 18° SSE 05:39:44 10° ESE visible
28 Oct -1.0 04:47:33 10° SSE 04:48:58 13° SE 04:50:33 10° ESE visible
28 Oct -2.4 06:21:54 10° SW 06:25:03 37° SSE 06:28:12 10° E visible
29 Oct -2.1 05:34:09 14° SSW 05:36:31 29° SSE 05:39:31 10° E visible
30 Oct -1.8 04:47:44 22° SSE 04:48:01 23° SSE 04:50:44 10° E visible
30 Oct -3.1 06:21:02 10° WSW 06:24:20 51° S 06:27:37 10° E visible
